Date String (YYYY-MM-DD hh:mm:ss) UTC,Instrument flags,absolute air pressure of the measurement (hPa),sample flow rate (lpm),inlet stack bypass flow (lpm),air temperature of the measurement (°C),ambient temperature measured by the external sensor (°C),aerosol sample conditioner tube jacket temperature (°C),OPC LED temperature (°C),internal box temperature (°C),relative humidity of the measurement (%),span deviation,mass concentration of particles derived from Lorenz-Mie calculation of OPC scattering (μg/m³),mass concentration of particles derived from Lorenz-Mie calculation of OPC scattering (μg/m³),mass concentration of particles derived from Lorenz-Mie calculation of OPC scattering (μg/m³)
DateTimeUTC,F1_M11,P_M11,Q1_M11,Q2_M11,T1_M11,T2_M11,T3_M11,T4_M11,T5_M11,U1_M11,ZSPAN_M11,X0_M11,X2_M11,X1_M11
2023-09-17 13:00:00,SystemResetWarning,0835.3,4.99,000.00,028.1,026.4,000.0,036.6,029.6,15.1,0000.0,0006.73,0003.44,0003.11
2023-09-17 13:01:00,SystemResetWarning,0835.2,5.00,000.00,028.1,026.4,000.0,036.5,029.6,15.1,0000.0,0006.87,0003.46,0003.11
2023-09-17 13:02:00,SystemResetWarning,0835.2,5.00,000.00,028.1,026.4,000.0,036.5,029.6,15.6,0000.0,0006.90,0003.47,0003.11
2023-09-17 13:03:00,SystemResetWarning,0835.2,5.01,000.00,028.1,026.4,000.0,036.5,029.6,15.8,0000.0,0006.78,0003.48,0003.11
2023-09-17 13:04:00,SystemResetWarning,0835.3,5.01,000.00,028.1,026.4,000.0,036.5,029.6,16.3,0000.0,0005.80,0003.47,0003.11
2023-09-17 13:05:00,SystemResetWarning,0835.2,5.00,000.00,028.1,026.4,000.0,036.5,029.6,16.7,0000.0,0005.24,0003.47,0003.12
2023-09-17 13:06:00,SystemResetWarning,0835.4,4.99,000.00,028.1,026.4,000.0,036.5,029.6,16.5,0000.0,0005.62,0003.47,0003.12
2023-09-17 13:07:00,SystemResetWarning,0835.3,4.99,000.00,028.1,026.4,000.0,036.5,029.6,15.7,0000.0,0006.10,0003.47,0003.11
2023-09-17 13:08:00,SystemResetWarning,0835.3,5.00,000.00,028.1,026.4,000.0,036.5,029.6,15.7,0000.0,0006.18,0003.48,0003.11
2023-09-17 13:09:00,SystemResetWarning,0835.3,4.99,000.00,028.1,026.4,000.0,036.5,029.6,15.5,0000.0,0006.00,0003.44,0003.10
2023-09-17 13:10:00,SystemResetWarning,0835.3,5.01,000.00,028.1,026.4,000.0,036.5,029.7,15.4,0000.0,0006.00,0003.45,0003.11
2023-09-17 13:11:00,SystemResetWarning,0835.2,5.01,000.00,028.1,026.4,000.0,036.5,029.7,14.9,0000.0,0005.81,0003.42,0003.10
2023-09-17 13:12:00,SystemResetWarning,0835.3,5.00,000.00,028.1,026.4,000.0,036.5,029.7,15.2,0000.0,0005.73,0003.41,0003.10
2023-09-17 13:13:00,SystemResetWarning,0835.2,5.00,000.00,028.1,026.4,000.0,036.5,029.7,14.9,0000.0,0005.73,0003.42,0003.10
2023-09-17 13:14:00,SystemResetWarning,0835.2,5.00,000.00,028.1,026.4,000.0,036.5,029.6,14.7,0000.0,0005.75,0003.42,0003.10
2023-09-17 13:15:00,SystemResetWarning,0835.2,4.99,000.00,028.1,026.4,000.0,036.5,029.6,14.7,0000.0,0005.97,0003.42,0003.10
2023-09-17 13:16:00,SystemResetWarning,0835.2,5.00,000.00,028.1,026.5,000.0,036.5,029.7,14.7,0000.0,0005.92,0003.40,0003.09
2023-09-17 13:17:00,SystemResetWarning,0835.4,4.99,000.00,028.1,026.5,000.0,036.5,029.6,14.7,0000.0,0005.88,0003.43,0003.10
2023-09-17 13:18:00,SystemResetWarning,0835.3,5.01,000.00,028.1,026.5,000.0,036.5,029.6,15.0,0000.0,0005.23,0003.42,0003.10
2023-09-17 13:19:00,SystemResetWarning,0835.4,5.01,000.00,028.1,026.5,000.0,036.5,029.6,15.0,0000.0,0005.14,0003.40,0003.10
2023-09-17 13:20:00,SystemResetWarning,0835.3,4.99,000.00,028.1,026.5,000.0,036.5,029.6,15.0,0000.0,0005.10,0003.39,0003.09
2023-09-17 13:21:00,SystemResetWarning,0835.3,4.99,000.00,028.1,026.5,000.0,036.5,029.6,15.1,0000.0,0005.03,0003.38,0003.08
2023-09-17 13:22:00,SystemResetWarning,0835.3,5.00,000.00,028.1,026.5,000.0,036.5,029.6,15.0,0000.0,0004.93,0003.35,0003.07
2023-09-17 13:23:00,SystemResetWarning,0835.3,5.01,000.00,028.1,026.5,000.0,036.5,029.7,15.0,0000.0,0005.02,0003.38,0003.09
2023-09-17 13:24:00,SystemResetWarning,0835.3,5.01,000.00,028.1,026.5,000.0,036.5,029.6,16.0,0000.0,0004.93,0003.37,0003.08
2023-09-17 13:25:00,SystemResetWarning,0835.3,5.00,000.00,028.1,026.5,000.0,036.5,029.7,16.8,0000.0,0004.80,0003.34,0003.09
2023-09-17 13:26:00,SystemResetWarning,0835.5,5.00,000.00,028.1,026.5,000.0,036.5,029.7,16.6,0000.0,0004.55,0003.33,0003.08
2023-09-17 13:27:00,SystemResetWarning,0835.3,5.00,000.00,028.1,026.5,000.0,036.5,029.7,15.4,0000.0,0004.65,0003.35,0003.08
2023-09-17 13:28:00,SystemResetWarning,0835.3,5.00,000.00,028.1,026.5,000.0,036.5,029.7,15.6,0000.0,0005.15,0003.33,0003.07
2023-09-17 13:29:00,SystemResetWarning,0835.3,5.00,000.00,028.1,026.5,000.0,036.5,029.7,15.6,0000.0,0005.90,0003.34,0003.06
2023-09-17 13:30:00,SystemResetWarning,0835.3,4.99,000.00,028.1,026.6,000.0,036.5,029.7,15.3,0000.0,0005.97,0003.35,0003.07
2023-09-17 13:31:00,SystemResetWarning,0835.3,5.00,000.00,028.1,026.6,000.0,036.5,029.7,15.3,0000.0,0006.03,0003.37,0003.07
2023-09-17 13:32:00,SystemResetWarning,0835.4,4.99,000.00,028.1,026.6,000.0,036.5,029.7,15.3,0000.0,0006.10,0003.38,0003.06
2023-09-17 13:33:00,SystemResetWarning,0835.4,5.00,000.00,028.1,026.6,000.0,036.5,029.7,15.9,0000.0,0006.15,0003.40,0003.08
2023-09-17 13:34:00,SystemResetWarning,0835.5,5.01,000.00,028.1,026.6,000.0,036.5,029.7,16.3,0000.0,0006.02,0003.37,0003.06
2023-09-17 13:35:00,SystemResetWarning,0835.5,4.99,000.00,028.1,026.6,000.0,036.5,029.7,16.3,0000.0,0006.02,0003.36,0003.05
2023-09-17 13:36:00,SystemResetWarning,0835.5,4.99,000.00,028.1,026.6,000.0,036.5,029.7,16.0,0000.0,0005.98,0003.34,0003.03
2023-09-17 13:37:00,SystemResetWarning,0835.5,4.99,000.00,028.1,026.6,000.0,036.5,029.7,15.3,0000.0,0005.94,0003.33,0003.02
2023-09-17 13:38:00,SystemResetWarning,0835.5,5.02,000.00,028.1,026.6,000.0,036.5,029.7,15.1,0000.0,0005.88,0003.32,0003.02
2023-09-17 13:39:00,SystemResetWarning,0835.5,5.01,000.00,028.1,026.6,000.0,036.5,029.7,14.9,0000.0,0005.43,0003.30,0003.02
2023-09-17 13:40:00,SystemResetWarning,0835.5,4.99,000.00,028.1,026.6,000.0,036.5,029.7,14.9,0000.0,0004.69,0003.33,0003.02
2023-09-17 13:41:00,SystemResetWarning,0835.5,4.99,000.00,028.2,026.6,000.0,036.5,029.7,15.6,0000.0,0004.69,0003.32,0003.02
2023-09-17 13:42:00,SystemResetWarning,0835.5,5.01,000.00,028.2,026.6,000.0,036.5,029.8,16.3,0000.0,0004.80,0003.32,0003.01
2023-09-17 13:43:00,SystemResetWarning,0835.5,5.01,000.00,028.2,026.6,000.0,036.5,029.8,15.9,0000.0,0004.84,0003.32,0003.01
2023-09-17 13:44:00,SystemResetWarning,0835.5,5.00,000.00,028.2,026.6,000.0,036.5,029.8,17.2,0000.0,0004.82,0003.32,0003.00
2023-09-17 13:45:00,SystemResetWarning,0835.5,5.00,000.00,028.2,026.6,000.0,036.5,029.8,18.3,0000.0,0004.83,0003.31,0003.00
2023-09-17 13:46:00,SystemResetWarning,0835.5,4.99,000.00,028.2,026.7,000.0,036.5,029.8,18.6,0000.0,0004.81,0003.31,0002.98
2023-09-17 13:47:00,SystemResetWarning,0835.5,4.99,000.00,028.2,026.7,000.0,036.5,029.8,18.2,0000.0,0004.89,0003.34,0002.99
2023-09-17 13:48:00,SystemResetWarning,0835.5,5.00,000.00,028.2,026.7,000.0,036.5,029.9,18.7,0000.0,0004.83,0003.33,0002.99
2023-09-17 13:49:00,SystemResetWarning,0835.5,5.00,000.00,028.2,026.7,000.0,036.5,029.9,17.7,0000.0,0004.89,0003.33,0002.98
2023-09-17 13:50:00,SystemResetWarning,0835.5,5.02,000.00,028.2,026.7,000.0,036.5,029.8,16.4,0000.0,0004.97,0003.33,0002.96
2023-09-17 13:51:00,SystemResetWarning,0835.5,5.00,000.00,028.2,026.7,000.0,036.5,029.8,16.4,0000.0,0004.83,0003.29,0002.93
2023-09-17 13:52:00,SystemResetWarning,0835.5,4.99,000.00,028.2,026.7,000.0,036.5,029.8,16.4,0000.0,0004.81,0003.28,0002.92
2023-09-17 13:53:00,SystemResetWarning,0835.5,5.00,000.00,028.2,026.7,000.0,036.5,029.8,16.7,0000.0,0004.67,0003.27,0002.91
2023-09-17 13:54:00,SystemResetWarning,0835.5,5.01,000.00,028.2,026.8,000.0,036.5,029.9,17.0,0000.0,0004.60,0003.26,0002.92
2023-09-17 13:55:00,SystemResetWarning,0835.6,5.01,000.00,028.2,026.8,000.0,036.6,029.9,16.8,0000.0,0004.60,0003.26,0002.91
2023-09-17 13:56:00,SystemResetWarning,0835.5,5.00,000.00,028.3,026.8,000.0,036.6,029.9,17.5,0000.0,0004.63,0003.27,0002.92
2023-09-17 13:57:00,SystemResetWarning,0835.5,5.00,000.00,028.3,026.8,000.0,036.6,029.9,17.6,0000.0,0004.65,0003.27,0002.92
2023-09-17 13:58:00,SystemResetWarning,0835.5,4.99,000.00,028.3,026.8,000.0,036.6,029.9,17.2,0000.0,0004.67,0003.24,0002.89
2023-09-17 13:59:00,SystemResetWarning,0835.5,5.00,000.00,028.3,026.8,000.0,036.6,029.9,17.0,0000.0,0004.77,0003.23,0002.88
